Flag for U.S.A. Weather past 2 weeks in Grand Junction, Colorado, U.S.A.

Now
83 °F

Sunny.


Feels Like: 81 °F
Forecast: 70 / 92 °F
Wind: 7 mph from Southeast

Location: Walker Field

Current Time: Jul 4, 2015 at 11:23:21 AM

Latest Report: Jul 4, 2015 at 10:53 AM


Visibility: 10 mi

Pressure: 29.83 "Hg (25.45 "Hg at 1398m altitude)

Humidity: 31%

Dew point: 49 °F

Location of Grand JunctionLocation

Historic Weather in Grand Junction — Graph

°F

Grand Junction temperature yesterday

Maximum temperature yesterday: 96 °F (at 4:53 PM)
Minimum temperature yesterday: 69 °F (at 5:53 AM)
Average temperature yesterday: 83 °F

Past Weeks' High & Low Weather Summary

 TemperatureHumidityPressure
High101 °F (Jun 30, 4:53 PM)54% (Jun 25, 6:53 AM)30.01 "Hg (Jun 25, 6:53 AM)
Low61 °F (Jun 23, 2:53 AM)5% (Jun 21, 4:53 PM)29.66 "Hg (Jul 3, 6:53 PM)
Average82 °F24%29.82 "Hg
* Reported Jun 19 9:53 AM — Jul 4 9:53 AM, Grand Junction, Weather by CustomWeather, © 2015

Note: Actual official high and low records may vary slightly from our data, if they occured in-between our weather recording intervals... More about our weather records

Advertising

Grand Junction weather history for previous 24 hours

 ConditionsComfort  
Time TempWeatherWind HumidityBarometerVisibility
9:53 AM
Sat, Jul 4
82 °FSunny.16 mph33%29.84 "Hg10 mi
8:53 AM79 °FSunny.18 mph36%29.85 "Hg10 mi
7:53 AM77 °FSunny.13 mph40%29.84 "Hg10 mi
6:53 AM75 °FSunny.15 mph40%29.82 "Hg10 mi
5:53 AM73 °FClear.16 mph44%29.80 "Hg10 mi
4:53 AM73 °FPassing clouds.16 mph43%29.78 "Hg10 mi
3:53 AM74 °FClear.15 mph43%29.78 "Hg10 mi
2:53 AM74 °FPassing clouds.18 mph43%29.76 "Hg10 mi
1:53 AM76 °FClear.15 mph42%29.76 "Hg10 mi
12:53 AM78 °FClear.12 mph37%29.75 "Hg10 mi
11:53 PM
Fri, Jul 3
78 °FClear.16 mph36%29.74 "Hg10 mi
10:53 PM80 °FClear.17 mph34%29.72 "Hg10 mi
9:53 PM81 °FClear.14 mph34%29.72 "Hg10 mi
8:53 PM83 °FSunny.21 mph33%29.70 "Hg10 mi
7:53 PM88 °FSunny.23 mph27%29.68 "Hg10 mi
6:53 PM94 °FSunny.15 mph19%29.66 "Hg10 mi
5:53 PM95 °FSunny.10 mph17%29.67 "Hg10 mi
4:53 PM96 °FSunny.13 mph17%29.69 "Hg10 mi
3:53 PM94 °FSunny.10 mph19%29.70 "Hg10 mi
2:53 PM95 °FSunny.12 mph21%29.72 "Hg10 mi
1:53 PM91 °FSunny.6 mph25%29.76 "Hg10 mi
12:53 PM91 °FSunny.5 mph24%29.79 "Hg10 mi
11:53 AM87 °FSunny.5 mph26%29.82 "Hg10 mi
Weather by CustomWeather, © 2015

See weather overviewHow to use our weather pages